Flag for Chile Weather past 2 weeks in Santiago, Chile

Now
54 °F

Broken clouds.


Feels Like: 54 °F
Forecast: 42 / 65 °F
Wind: 2 mph from North

Location: Pudahuel

Current Time: May 30, 2015 at 2:01:02 PM

Latest Report: May 30, 2015 at 1:00 PM


Visibility: 4 mi

Pressure: 30.12 "Hg

Humidity: 72%

Dew point: 45 °F

Location of SantiagoLocation

Historic Weather in Santiago — Graph

°F

Santiago temperature yesterday

Maximum temperature yesterday: 68 °F (at 3:00 PM)
Minimum temperature yesterday: 50 °F (at 2:00 AM)
Average temperature yesterday: 57 °F

Past Weeks' High & Low Weather Summary

 TemperatureHumidityPressure
High86 °F (May 19, 4:00 PM)100% (May 22, 7:00 AM)30.18 "Hg (May 22, 7:00 AM)
Low34 °F (May 24, 8:00 AM)8% (May 19, 4:00 PM)29.89 "Hg (May 19, 5:00 PM)
Average53 °F62%30.06 "Hg
* Reported May 15 1:00 PM — May 30 1:00 PM, Santiago, Weather by CustomWeather, © 2015

Note: Actual official high and low records may vary slightly from our data, if they occured in-between our weather recording intervals... More about our weather records

Advertising

Santiago weather history for previous 24 hours

 ConditionsComfort  
Time TempWeatherWind HumidityBarometerVisibility
1:00 PM
Sat, May 30
54 °FBroken clouds.2 mph72%30.12 "Hg4 mi
12:00 PM52 °FPartly sunny.6 mph72%30.15 "Hg4 mi
11:00 AM46 °FMore clouds than sun.3 mph82%30.12 "Hg4 mi
10:00 AM45 °FMore clouds than sun.5 mph87%30.09 "Hg3 mi
9:00 AM41 °FFog.5 mph93%30.07 "Hg2 mi
8:00 AM41 °FScattered clouds.No wind87%30.07 "Hg3 mi
7:00 AM41 °FFog.3 mph93%30.04 "Hg3 mi
6:00 AM41 °FFog.5 mph93%30.04 "Hg2 mi
5:00 AM41 °FFog.1 mph93%30.04 "Hg3 mi
4:00 AM43 °FClear.No wind87%30.07 "Hg5 mi
3:00 AM45 °FClear.2 mph87%30.07 "Hg4 mi
2:00 AM46 °FClear.No wind87%30.07 "Hg4 mi
1:00 AM48 °FClear.5 mph82%30.07 "Hg4 mi
12:00 AM50 °FClear.2 mph76%30.07 "Hg10 mi
11:00 PM
Fri, May 29
54 °FPassing clouds.3 mph82%30.07 "HgN/A
10:00 PM55 °FClear.6 mph72%30.09 "Hg10 mi
9:00 PM59 °FClear.7 mph63%30.07 "Hg10 mi
8:00 PM57 °FClear.6 mph63%30.07 "Hg10 mi
7:00 PM61 °FClear.8 mph52%30.07 "Hg10 mi
6:00 PM66 °FClear.12 mph43%30.07 "Hg10 mi
5:00 PM68 °FSunny.13 mph38%30.07 "Hg10 mi
4:00 PM68 °FSunny.15 mph38%30.07 "Hg10 mi
3:00 PM68 °FPassing clouds.8 mph38%30.07 "HgN/A
2:00 PM64 °FPassing clouds.7 mph43%30.07 "HgN/A
Weather by CustomWeather, © 2015

See weather overviewHow to use our weather pages